Location: La Fredeussais
(48.1780°N, 1.3980°W)
Time: 04:06:13
(UTC+00:00)

SL-24 R/B - RUBIN 2 - Visible Passes

Search period start: 24 September 2021 00:00
Search period end: 04 October 2021 00:00
Orbit: 590 x 1005 km, 64.6° (Epoch: 23 September)

Date Brightness Start Highest point End Pass type
(mag) Time Alt. Az. Time Alt. Az. Time Alt. Az.
24 Sep 6.0 02:52:07 21° SE 02:54:20 26° ESE 02:58:57 10° ENE visible
24 Sep 4.2 04:33:01 17° SW 04:37:52 72° NW 04:43:24 10° NE visible
25 Sep 6.2 02:24:49 20° ESE 02:25:42 21° ESE 02:29:50 10° ENE visible
25 Sep 4.2 04:05:44 28° SW 04:09:05 86° NW 04:14:39 10° NE visible
26 Sep 6.5 01:57:26 16° ESE 01:57:26 16° ESE 02:00:33 10° ENE visible
26 Sep 4.3 03:38:20 44° SSW 03:40:19 80° SE 03:45:53 10° NE visible
26 Sep 5.3 05:19:36 10° W 05:24:41 29° NW 05:29:21 10° NNE visible
27 Sep 6.8 01:29:58 12° E 01:29:58 12° E 01:30:56 10° E visible
27 Sep 4.4 03:10:52 60° SSE 03:11:33 66° SE 03:17:05 10° NE visible
27 Sep 5.1 04:51:45 16° W 04:55:46 33° NW 05:00:39 10° NNE visible
28 Sep 4.8 02:43:19 52° ESE 02:43:19 52° ESE 02:48:15 10° NE visible
28 Sep 4.9 04:24:13 25° W 04:26:53 38° NW 04:31:56 10° NNE visible
29 Sep 5.5 02:15:43 35° E 02:15:43 35° E 02:19:25 10° NE visible
29 Sep 4.7 03:56:36 38° W 03:58:01 45° NW 04:03:14 10° NNE visible
30 Sep 6.1 01:48:04 24° ENE 01:48:04 24° ENE 01:50:30 10° NE visible
30 Sep 4.4 03:28:57 53° NW 03:29:11 54° NW 03:34:31 10° NNE visible
30 Sep 5.8 05:10:11 10° WNW 05:14:08 19° NNW 05:17:49 10° NNE visible
01 Oct 6.7 01:20:23 15° ENE 01:20:23 15° ENE 01:21:32 10° ENE visible
01 Oct 4.6 03:01:15 56° N 03:01:15 56° N 03:05:48 10° NE visible
01 Oct 5.7 04:42:08 14° WNW 04:45:09 21° NNW 04:49:06 10° NNE visible
02 Oct 5.2 02:33:31 42° NNE 02:33:31 42° NNE 02:37:03 10° NE visible
02 Oct 5.6 04:14:24 20° WNW 04:16:10 23° NNW 04:20:24 10° NNE visible
03 Oct 5.8 02:05:45 29° NE 02:05:45 29° NE 02:08:18 10° NE visible
03 Oct 5.4 03:46:38 26° NW 03:47:14 26° NNW 03:51:42 10° NNE visible
03 Oct 6.2 05:30:19 10° NW 05:32:52 13° N 05:35:19 10° NNE visible
